Regional Weather Roundup
Issued by NWS

Home | Current Version | Previous Version | Text Only | Print | Product List | Glossary Off
Versions: 1 2 3 4 5 6 7 8 9 10 11 12 13 14 15 16 17 18 19 20 21 22 23 24 25 26 27

000
ASUS45 KCYS 270210
RWRWY

WYOMING REGIONAL WEATHER ROUNDUP
NATIONAL WEATHER SERVICE CHEYENNE WY
800 PM MDT SUN MAR 26 2017

NOTE:  "FAIR" INDICATES FEW OR NO CLOUDS BELOW 12,000 FEET
WITH NO SIGNIFICANT WEATHER AND/OR OBSTRUCTIONS TO VISIBILITY.

WYZ001-270300-
YELLOWSTONE NATIONAL PARK

CITY           SKY/WX    TMP DP  RH WIND       PRES   REMARKS
LK YELLOWSTONE   N/A     31  19  61 VRB3      29.96S
W YELLOWSTONE  NOT AVBL

$$
WYZ002>013-054>058-071-098>099-270300-
NORTHERN WYOMING

CITY           SKY/WX    TMP DP  RH WIND       PRES   REMARKS
JACKSON        MOCLDY    37  25  60 S8        29.95S WCI  31
CODY           CLOUDY    49  18  29 W9        29.86R
GREYBULL       FAIR      51  28  41 SE9       29.84R
WORLAND        FAIR      47  35  63 E8        29.84S
SHERIDAN       FAIR      46  34  62 S8        29.86F
BUFFALO        FAIR      47  30  51 SE5       29.90S
GILLETTE       FAIR      43  34  70 SE8       29.90R
HULETT         FAIR      41  32  70 S7        29.93R
NEWCASTLE      FAIR      41  34  75 NW5       29.93R

$$
WYZ014>020-022>026-101>103-270300-
CENTRAL WYOMING

CITY           SKY/WX    TMP DP  RH WIND       PRES   REMARKS
BIG PINEY      FAIR      34  24  67 N7        29.97R WCI  28
PINEDALE       FAIR      32  25  74 NW6       29.97S WCI  26
DUBOIS         FAIR      36  18  48 W17       29.91R WCI  25
LANDER         FAIR      46  15  28 W8        29.85S
RIVERTON       FAIR      48  20  32 SW3       29.85F
CASPER         FAIR      42  32  67 CALM      29.90R
DOUGLAS        FAIR      42  32  67 CALM      29.92S

$$
WYZ021-027>030-104>119-270300-
SOUTHERN WYOMING

CITY           SKY/WX    TMP DP  RH WIND       PRES   REMARKS
EVANSTON       CLOUDY    38  24  57 W9        30.00R WCI  31
KEMMERER         N/A     34  27  75 NW8       30.00R WCI  27
FORT BRIDGER   MOCLDY    39  25  58 W10       30.02R WCI  32
ROCK SPRINGS   MOCLDY    42  22  44 W10       29.96S
DIXON            N/A     44  20  38 SW5       29.99S
RAWLINS        FAIR      43  19  38 W9        29.95R
SARATOGA       FAIR      37  27  65 SW8       29.97S WCI  31
LARAMIE        CLOUDY    36  30  79 E5        29.94F WCI  32
CHEYENNE       MOCLDY    40  33  76 NE5       29.96R
TORRINGTON     FAIR      44  35  70 S3        29.93R
PINE BLUFFS    FAIR      36  32  87 N7        29.96R WCI  30

$$




USA.gov is the U.S. government's official web portal to all federal, state and local government web resources and services.